Simultaneous Nadir Overpasses (SNOs) Predictions

Prediction of SNOs between TERRA and METOP-C Satellite Orbit:

Table of predicted SNOs for the next 14.0 days since TLE Epoch: 8/3/2019
Index Date (TERRA) Time (TERRA) Lat,Lon (TERRA) SZA (TERRA ) Date (METOP-C) Time (METOP-C) Lat,Lon (METOP-C) SZA (METOP-C ) Distance(km) Time Diff (sec)
1 08/04/2019 09:15:14 81.31, 88.48 66.76 08/04/2019 09:14:59 81.30, 88.29 66.73 3.24 15
2 08/04/2019 10:04:41 -81.30,-103.99 113.25 08/04/2019 10:05:38 -81.31,-104.00 113.22 0.55 57
3 08/07/2019 04:49:28 81.30, 154.83 67.51 08/07/2019 04:49:20 81.30, 154.89 67.52 1.06 8
4 08/07/2019 05:38:54 -81.32, -37.24 112.44 08/07/2019 05:39:59 -81.31, -37.38 112.43 2.57 65
5 08/09/2019 23:34:30 -80.99, 48.69 112.45 08/09/2019 23:33:16 -81.18, 48.18 112.40 22.55 74
6 08/10/2019 00:23:43 81.30,-138.84 68.30 08/10/2019 00:23:43 81.30,-138.90 68.30 1.07 0
7 08/10/2019 01:13:09 -81.31, 29.11 111.64 08/10/2019 01:14:21 -81.31, 29.25 111.60 2.27 72
8 08/12/2019 19:08:31 -81.31, 120.13 110.85 08/12/2019 19:07:24 -81.30, 120.20 110.87 1.28 67
9 08/12/2019 19:57:57 81.31, -72.15 69.18 08/12/2019 19:58:05 81.30, -72.30 69.16 2.50 8
10 08/15/2019 14:42:45 -81.30,-173.57 109.99 08/15/2019 14:41:46 -81.30,-173.56 110.02 0.12 59




NCC Satellite Simultaneous Nadir Overpasses (SNOs) Prediction Service
